Retour au catalogue

STARLINK-2512

ActifCommunicationsVLEO
NORAD 48319·PAYLOAD·🇺🇸 United States

Lancé Apr 29, 2021 depuis Cape Canaveral Space Force Station

Loading…

Prochains Passages (prochaines 24 heures)

TLE

FraisSource: CelesTrak SupGP

Époque: Sep 15, 2026, 01:38 UTC

1 48319C 21036AV  26258.06854167  .00042017  00000+0  13507-2 0  2586
2 48319  53.1581 299.8089 0001100  99.0835 302.6526 15.31692063    12

Suivez STARLINK-2512 en temps réel avec AllMySat

Download on the App Store